Year,Month,Day,Hour,Minute,Value (Times are PST for temperature in C)
2013,10,30,00,00,2.40
2013,10,30,00,01,2.30
2013,10,30,00,02,2.30
2013,10,30,00,03,2.30
2013,10,30,00,04,2.30
2013,10,30,00,05,2.30
2013,10,30,00,06,2.30
2013,10,30,00,07,2.30
2013,10,30,00,08,2.30
2013,10,30,00,09,2.30
2013,10,30,00,10,2.30
2013,10,30,00,11,2.30
2013,10,30,00,12,2.40
2013,10,30,00,13,2.40
2013,10,30,00,14,2.40
2013,10,30,00,15,2.40
2013,10,30,00,16,2.40
2013,10,30,00,17,2.40
2013,10,30,00,18,2.40
2013,10,30,00,19,2.40
2013,10,30,00,20,2.40
2013,10,30,00,21,2.40
2013,10,30,00,22,2.40
2013,10,30,00,23,2.40
2013,10,30,00,24,2.40
2013,10,30,00,25,2.30
2013,10,30,00,26,2.30
2013,10,30,00,27,2.30
2013,10,30,00,28,2.30
2013,10,30,00,29,2.30
2013,10,30,00,30,2.30
2013,10,30,00,31,2.20
2013,10,30,00,32,2.20
2013,10,30,00,33,2.20
2013,10,30,00,34,2.20
2013,10,30,00,35,2.20
2013,10,30,00,36,2.20
2013,10,30,00,37,2.20
2013,10,30,00,38,2.10
2013,10,30,00,39,2.10
2013,10,30,00,40,2.10
2013,10,30,00,41,2.10
2013,10,30,00,42,2.10
2013,10,30,00,43,2.10
2013,10,30,00,44,2.10
2013,10,30,00,45,2.00
2013,10,30,00,46,2.00
2013,10,30,00,47,2.00
2013,10,30,00,48,2.00
2013,10,30,00,49,1.90
2013,10,30,00,50,1.90
2013,10,30,00,51,1.90
2013,10,30,00,52,1.90
2013,10,30,00,53,1.90
2013,10,30,00,54,1.90
2013,10,30,00,55,1.90
2013,10,30,00,56,1.90
2013,10,30,00,57,1.90
2013,10,30,00,58,1.90
2013,10,30,00,59,1.90
2013,10,30,01,00,1.90
2013,10,30,01,01,1.90
2013,10,30,01,02,1.90
2013,10,30,01,03,1.90
2013,10,30,01,04,1.90
2013,10,30,01,05,2.00
2013,10,30,01,06,2.00
2013,10,30,01,07,2.00
2013,10,30,01,08,2.00
2013,10,30,01,09,2.00
2013,10,30,01,10,2.10
2013,10,30,01,11,2.10
2013,10,30,01,12,2.10
2013,10,30,01,13,2.10
2013,10,30,01,14,2.10
2013,10,30,01,15,2.10
2013,10,30,01,16,2.10
2013,10,30,01,17,2.10
2013,10,30,01,18,2.10
2013,10,30,01,19,2.00
2013,10,30,01,20,2.00
2013,10,30,01,21,2.00
2013,10,30,01,22,2.00
2013,10,30,01,23,2.00
2013,10,30,01,24,1.90
2013,10,30,01,25,1.90
2013,10,30,01,26,1.90
2013,10,30,01,27,1.90
2013,10,30,01,28,1.90
2013,10,30,01,29,1.90
2013,10,30,01,30,1.90
2013,10,30,01,31,1.80
2013,10,30,01,32,1.80
2013,10,30,01,33,1.80
2013,10,30,01,34,1.80
2013,10,30,01,35,1.80
2013,10,30,01,36,1.80
2013,10,30,01,37,1.80
2013,10,30,01,38,1.80
2013,10,30,01,39,1.70
2013,10,30,01,40,1.70
2013,10,30,01,41,1.70
2013,10,30,01,42,1.70
2013,10,30,01,43,1.70
2013,10,30,01,44,1.70
2013,10,30,01,45,1.70
2013,10,30,01,46,1.70
2013,10,30,01,47,1.60
2013,10,30,01,48,1.60
2013,10,30,01,49,1.60
2013,10,30,01,50,1.60
2013,10,30,01,51,1.60
2013,10,30,01,52,1.60
2013,10,30,01,53,1.60
2013,10,30,01,54,1.60
2013,10,30,01,55,1.60
2013,10,30,01,56,1.60
2013,10,30,01,57,1.60
2013,10,30,01,58,1.60
2013,10,30,01,59,1.50
2013,10,30,02,00,1.50
2013,10,30,02,01,1.50
2013,10,30,02,02,1.60
2013,10,30,02,03,1.60
2013,10,30,02,04,1.60
2013,10,30,02,05,1.60
2013,10,30,02,06,1.60
2013,10,30,02,07,1.70
2013,10,30,02,08,1.70
2013,10,30,02,09,1.70
2013,10,30,02,10,1.70
2013,10,30,02,11,1.70
2013,10,30,02,12,1.70
2013,10,30,02,13,1.70
2013,10,30,02,14,1.70
2013,10,30,02,15,1.70
2013,10,30,02,16,1.70
2013,10,30,02,17,1.70
2013,10,30,02,18,1.70
2013,10,30,02,19,1.70
2013,10,30,02,20,1.60
2013,10,30,02,21,1.60
2013,10,30,02,22,1.60
2013,10,30,02,23,1.60
2013,10,30,02,24,1.60
2013,10,30,02,25,1.50
2013,10,30,02,26,1.50
2013,10,30,02,27,1.50
2013,10,30,02,28,1.50
2013,10,30,02,29,1.40
2013,10,30,02,30,1.40
2013,10,30,02,31,1.40
2013,10,30,02,32,1.40
2013,10,30,02,33,1.40
2013,10,30,02,34,1.40
2013,10,30,02,35,1.40
2013,10,30,02,36,1.40
2013,10,30,02,37,1.30
2013,10,30,02,38,1.30
2013,10,30,02,39,1.30
2013,10,30,02,40,1.30
2013,10,30,02,41,1.30
2013,10,30,02,42,1.30
2013,10,30,02,43,1.30
2013,10,30,02,44,1.30
2013,10,30,02,45,1.30
2013,10,30,02,46,1.30
2013,10,30,02,47,1.30
2013,10,30,02,48,1.30
2013,10,30,02,49,1.30
2013,10,30,02,50,1.30
2013,10,30,02,51,1.30
2013,10,30,02,52,1.30
2013,10,30,02,53,1.30
2013,10,30,02,54,1.30
2013,10,30,02,55,1.30
2013,10,30,02,56,1.30
2013,10,30,02,57,1.30
2013,10,30,02,58,1.30
2013,10,30,02,59,1.30
2013,10,30,03,00,1.30
2013,10,30,03,01,1.30
2013,10,30,03,02,1.30
2013,10,30,03,03,1.30
2013,10,30,03,04,1.30
2013,10,30,03,05,1.30
2013,10,30,03,06,1.30
2013,10,30,03,07,1.30
2013,10,30,03,08,1.30
2013,10,30,03,09,1.30
2013,10,30,03,10,1.30
2013,10,30,03,11,1.30
2013,10,30,03,12,1.30
2013,10,30,03,13,1.30
2013,10,30,03,14,1.30
2013,10,30,03,15,1.30
2013,10,30,03,16,1.30
2013,10,30,03,17,1.30
2013,10,30,03,18,1.30
2013,10,30,03,19,1.30
2013,10,30,03,20,1.30
2013,10,30,03,21,1.30
2013,10,30,03,22,1.30
2013,10,30,03,23,1.30
2013,10,30,03,24,1.30
2013,10,30,03,25,1.30
2013,10,30,03,26,1.30
2013,10,30,03,27,1.40
2013,10,30,03,28,1.40
2013,10,30,03,29,1.40
2013,10,30,03,30,1.40
2013,10,30,03,31,1.40
2013,10,30,03,32,1.40
2013,10,30,03,33,1.40
2013,10,30,03,34,1.40
2013,10,30,03,35,1.40
2013,10,30,03,36,1.40
2013,10,30,03,37,1.40
2013,10,30,03,38,1.40
2013,10,30,03,39,1.40
2013,10,30,03,40,1.50
2013,10,30,03,41,1.50
2013,10,30,03,42,1.50
2013,10,30,03,43,1.50
2013,10,30,03,44,1.50
2013,10,30,03,45,1.50
2013,10,30,03,46,1.50
2013,10,30,03,47,1.50
2013,10,30,03,48,1.60
2013,10,30,03,49,1.60
2013,10,30,03,50,1.60
2013,10,30,03,51,1.60
2013,10,30,03,52,1.60
2013,10,30,03,53,1.60
2013,10,30,03,54,1.70
2013,10,30,03,55,1.70
2013,10,30,03,56,1.70
2013,10,30,03,57,1.70
2013,10,30,03,58,1.70
2013,10,30,03,59,1.70
2013,10,30,04,00,1.80
2013,10,30,04,01,1.80
2013,10,30,04,02,1.80
2013,10,30,04,03,1.80
2013,10,30,04,04,1.80
2013,10,30,04,05,1.80
2013,10,30,04,06,1.80
2013,10,30,04,07,1.90
2013,10,30,04,08,1.90
2013,10,30,04,09,1.90
2013,10,30,04,10,1.90
2013,10,30,04,11,1.90
2013,10,30,04,12,1.90
2013,10,30,04,13,2.00
2013,10,30,04,14,2.00
2013,10,30,04,15,2.10
2013,10,30,04,16,2.10
2013,10,30,04,17,2.10
2013,10,30,04,18,2.10
2013,10,30,04,19,2.10
2013,10,30,04,20,2.20
2013,10,30,04,21,2.20
2013,10,30,04,22,2.20
2013,10,30,04,23,2.30
2013,10,30,04,24,2.30
2013,10,30,04,25,2.30
2013,10,30,04,26,2.30
2013,10,30,04,27,2.30
2013,10,30,04,28,2.30
2013,10,30,04,29,2.30
2013,10,30,04,30,2.30
2013,10,30,04,31,2.30
2013,10,30,04,32,2.30
2013,10,30,04,33,2.40
2013,10,30,04,34,2.40
2013,10,30,04,35,2.40
2013,10,30,04,36,2.40
2013,10,30,04,37,2.40
2013,10,30,04,38,2.40
2013,10,30,04,39,2.50
2013,10,30,04,40,2.50
2013,10,30,04,41,2.50
2013,10,30,04,42,2.50
2013,10,30,04,43,2.50
2013,10,30,04,44,2.50
2013,10,30,04,45,2.50
2013,10,30,04,46,2.60
2013,10,30,04,47,2.60
2013,10,30,04,48,2.60
2013,10,30,04,49,2.60
2013,10,30,04,50,2.60
2013,10,30,04,51,2.60
2013,10,30,04,52,2.60
2013,10,30,04,53,2.60
2013,10,30,04,54,2.60
2013,10,30,04,55,2.70
2013,10,30,04,56,2.70
2013,10,30,04,57,2.70
2013,10,30,04,58,2.70
2013,10,30,04,59,2.70
2013,10,30,05,00,2.70
2013,10,30,05,01,2.70
2013,10,30,05,02,2.70
2013,10,30,05,03,2.70
2013,10,30,05,04,2.70
2013,10,30,05,05,2.80
2013,10,30,05,06,2.80
2013,10,30,05,07,2.80
2013,10,30,05,08,2.80
2013,10,30,05,09,2.80
2013,10,30,05,10,2.80
2013,10,30,05,11,2.80
2013,10,30,05,12,2.80
2013,10,30,05,13,2.80
2013,10,30,05,14,2.80
2013,10,30,05,15,2.80
2013,10,30,05,16,2.80
2013,10,30,05,17,2.80
2013,10,30,05,18,2.80
2013,10,30,05,19,2.80
2013,10,30,05,20,2.80
2013,10,30,05,21,2.80
2013,10,30,05,22,2.80
2013,10,30,05,23,2.80
2013,10,30,05,24,2.80
2013,10,30,05,25,2.80
2013,10,30,05,26,2.80
2013,10,30,05,27,2.90
2013,10,30,05,28,2.90
2013,10,30,05,29,2.90
2013,10,30,05,30,2.90
2013,10,30,05,31,2.90
2013,10,30,05,32,2.90
2013,10,30,05,33,2.90
2013,10,30,05,34,2.90
2013,10,30,05,35,2.90
2013,10,30,05,36,2.90
2013,10,30,05,37,2.90
2013,10,30,05,38,2.90
2013,10,30,05,39,2.90
2013,10,30,05,40,2.90
2013,10,30,05,41,2.90
2013,10,30,05,42,2.90
2013,10,30,05,43,2.90
2013,10,30,05,44,2.90
2013,10,30,05,45,2.90
2013,10,30,05,46,3.00
2013,10,30,05,47,2.90
2013,10,30,05,48,3.00
2013,10,30,05,49,3.00
2013,10,30,05,50,3.00
2013,10,30,05,51,3.00
2013,10,30,05,52,3.00
2013,10,30,05,53,3.00
2013,10,30,05,54,3.00
2013,10,30,05,55,3.00
2013,10,30,05,56,3.00
2013,10,30,05,57,3.00
2013,10,30,05,58,3.00
2013,10,30,05,59,3.00
2013,10,30,06,00,3.10
2013,10,30,06,01,3.10
2013,10,30,06,02,3.10
2013,10,30,06,03,3.10
2013,10,30,06,04,3.10
2013,10,30,06,05,3.10
2013,10,30,06,06,3.10
2013,10,30,06,07,3.10
2013,10,30,06,08,3.10
2013,10,30,06,09,3.10
2013,10,30,06,10,3.10
2013,10,30,06,11,3.10
2013,10,30,06,12,3.10
2013,10,30,06,13,3.10
2013,10,30,06,14,3.20
2013,10,30,06,15,3.20
2013,10,30,06,16,3.20
2013,10,30,06,17,3.20
2013,10,30,06,18,3.20
2013,10,30,06,19,3.20
2013,10,30,06,20,3.20
2013,10,30,06,21,3.20
2013,10,30,06,22,3.30
2013,10,30,06,23,3.30
2013,10,30,06,24,3.30
2013,10,30,06,25,3.30
2013,10,30,06,26,3.30
2013,10,30,06,27,3.30
2013,10,30,06,28,3.30
2013,10,30,06,29,3.30
2013,10,30,06,30,3.30
2013,10,30,06,31,3.30
2013,10,30,06,32,3.30
2013,10,30,06,33,3.30
2013,10,30,06,34,3.30
2013,10,30,06,35,3.30
2013,10,30,06,36,3.40
2013,10,30,06,37,3.40
2013,10,30,06,38,3.40
2013,10,30,06,39,3.40
2013,10,30,06,40,3.40
2013,10,30,06,41,3.40
2013,10,30,06,42,3.40
2013,10,30,06,43,3.40
2013,10,30,06,44,3.50
2013,10,30,06,45,3.50
2013,10,30,06,46,3.50
2013,10,30,06,47,3.50
2013,10,30,06,48,3.50
2013,10,30,06,49,3.50
2013,10,30,06,50,3.50
2013,10,30,06,51,3.50
2013,10,30,06,52,3.50
2013,10,30,06,53,3.60
2013,10,30,06,54,3.60
2013,10,30,06,55,3.60
2013,10,30,06,56,3.60
2013,10,30,06,57,3.60
2013,10,30,06,58,3.60
2013,10,30,06,59,3.60
2013,10,30,07,00,3.60
2013,10,30,07,01,3.60
2013,10,30,07,02,3.70
2013,10,30,07,03,3.70
2013,10,30,07,04,3.70
2013,10,30,07,05,3.70
2013,10,30,07,06,3.70
2013,10,30,07,07,3.70
2013,10,30,07,08,3.70
2013,10,30,07,09,3.70
2013,10,30,07,10,3.70
2013,10,30,07,11,3.80
2013,10,30,07,12,3.80
2013,10,30,07,13,3.80
2013,10,30,07,14,3.80
2013,10,30,07,15,3.80
2013,10,30,07,16,3.80
2013,10,30,07,17,3.80
2013,10,30,07,18,3.80
2013,10,30,07,19,3.80
2013,10,30,07,20,3.80
2013,10,30,07,21,3.80
2013,10,30,07,22,3.80
2013,10,30,07,23,3.80
2013,10,30,07,24,3.80
2013,10,30,07,25,3.80
2013,10,30,07,26,3.80
2013,10,30,07,27,3.80
2013,10,30,07,28,3.90
2013,10,30,07,29,3.90
2013,10,30,07,30,3.90
2013,10,30,07,31,3.90
2013,10,30,07,32,3.90
2013,10,30,07,33,3.90
2013,10,30,07,34,3.90
2013,10,30,07,35,3.90
2013,10,30,07,36,3.90
2013,10,30,07,37,3.90
2013,10,30,07,38,3.90
2013,10,30,07,39,3.90
2013,10,30,07,40,3.90
2013,10,30,07,41,3.90
2013,10,30,07,42,3.90
2013,10,30,07,43,3.90
2013,10,30,07,44,3.90
2013,10,30,07,45,3.90
2013,10,30,07,46,3.90
2013,10,30,07,47,3.90
2013,10,30,07,48,3.90
2013,10,30,07,49,3.90
2013,10,30,07,50,3.90
2013,10,30,07,51,3.90
2013,10,30,07,52,3.90
2013,10,30,07,53,4.00
2013,10,30,07,54,4.00
2013,10,30,07,55,3.90
2013,10,30,07,56,4.00
2013,10,30,07,57,4.00
2013,10,30,07,58,4.00
2013,10,30,07,59,4.00
2013,10,30,08,00,4.00
2013,10,30,08,01,4.00
2013,10,30,08,02,4.00
2013,10,30,08,03,4.00
2013,10,30,08,04,4.00
2013,10,30,08,05,4.00
2013,10,30,08,06,4.00
2013,10,30,08,07,4.00
2013,10,30,08,08,4.00
2013,10,30,08,09,4.10
2013,10,30,08,10,4.10
2013,10,30,08,11,4.10
2013,10,30,08,12,4.10
2013,10,30,08,13,4.10
2013,10,30,08,14,4.10
2013,10,30,08,15,4.10
2013,10,30,08,16,4.10
2013,10,30,08,17,4.10
2013,10,30,08,18,4.20
2013,10,30,08,19,4.20
2013,10,30,08,20,4.20
2013,10,30,08,21,4.20
2013,10,30,08,22,4.20
2013,10,30,08,23,4.20
2013,10,30,08,24,4.20
2013,10,30,08,25,4.20
2013,10,30,08,26,4.30
2013,10,30,08,27,4.30
2013,10,30,08,28,4.30
2013,10,30,08,29,4.30
2013,10,30,08,30,4.30
2013,10,30,08,31,4.30
2013,10,30,08,32,4.30
2013,10,30,08,33,4.40
2013,10,30,08,34,4.40
2013,10,30,08,35,4.40
2013,10,30,08,36,4.40
2013,10,30,08,37,4.40
2013,10,30,08,38,4.40
2013,10,30,08,39,4.40
2013,10,30,08,40,4.40
2013,10,30,08,41,4.40
2013,10,30,08,42,4.40
2013,10,30,08,43,4.50
2013,10,30,08,44,4.50
2013,10,30,08,45,4.50
2013,10,30,08,46,4.50
2013,10,30,08,47,4.50
2013,10,30,08,48,4.50
2013,10,30,08,49,4.60
2013,10,30,08,50,4.60
2013,10,30,08,51,4.60
2013,10,30,08,52,4.70
2013,10,30,08,53,4.70
2013,10,30,08,54,4.70
2013,10,30,08,55,4.70
2013,10,30,08,56,4.80
2013,10,30,08,57,4.80
2013,10,30,08,58,4.80
2013,10,30,08,59,4.80
2013,10,30,09,00,4.80
2013,10,30,09,01,4.90
2013,10,30,09,02,4.90
2013,10,30,09,03,4.90
2013,10,30,09,04,4.90
2013,10,30,09,05,5.00
2013,10,30,09,06,5.00
2013,10,30,09,07,5.00
2013,10,30,09,08,5.10
2013,10,30,09,09,5.10
2013,10,30,09,10,5.10
2013,10,30,09,11,5.10
2013,10,30,09,12,5.10
2013,10,30,09,13,5.20
2013,10,30,09,14,5.20
2013,10,30,09,15,5.20
2013,10,30,09,16,5.20
2013,10,30,09,17,5.20
2013,10,30,09,18,5.30
2013,10,30,09,19,5.30
2013,10,30,09,20,5.30
2013,10,30,09,21,5.30
2013,10,30,09,22,5.30
2013,10,30,09,23,5.30
2013,10,30,09,24,5.40
2013,10,30,09,25,5.40
2013,10,30,09,26,5.40
2013,10,30,09,27,5.40
2013,10,30,09,28,5.50
2013,10,30,09,29,5.50
2013,10,30,09,30,5.60
2013,10,30,09,31,5.60
2013,10,30,09,32,5.60
2013,10,30,09,33,5.70
2013,10,30,09,34,5.70
2013,10,30,09,35,5.70
2013,10,30,09,36,5.80
2013,10,30,09,37,5.80
2013,10,30,09,38,5.80
2013,10,30,09,39,5.80
2013,10,30,09,40,5.90
2013,10,30,09,41,5.90
2013,10,30,09,42,5.90
2013,10,30,09,43,5.90
2013,10,30,09,44,6.00
2013,10,30,09,45,6.00
2013,10,30,09,46,6.00
2013,10,30,09,47,6.10
2013,10,30,09,48,6.10
2013,10,30,09,49,6.10
2013,10,30,09,50,6.10
2013,10,30,09,51,6.10
2013,10,30,09,52,6.20
2013,10,30,09,53,6.20
2013,10,30,09,54,6.20
2013,10,30,09,55,6.20
2013,10,30,09,56,6.20
2013,10,30,09,57,6.20
2013,10,30,09,58,6.30
2013,10,30,09,59,6.30
2013,10,30,10,00,6.30
2013,10,30,10,01,6.30
2013,10,30,10,02,6.30
2013,10,30,10,03,6.30
2013,10,30,10,04,6.30
2013,10,30,10,05,6.30
2013,10,30,10,06,6.40
2013,10,30,10,07,6.40
2013,10,30,10,08,6.40
2013,10,30,10,09,6.40
2013,10,30,10,10,6.50
2013,10,30,10,11,6.50
2013,10,30,10,12,6.60
2013,10,30,10,13,6.60
2013,10,30,10,14,6.60
2013,10,30,10,15,6.70
2013,10,30,10,16,6.70
2013,10,30,10,17,6.80
2013,10,30,10,18,6.80
2013,10,30,10,19,6.90
2013,10,30,10,20,6.90
2013,10,30,10,21,7.00
2013,10,30,10,22,7.10
2013,10,30,10,23,7.20
2013,10,30,10,24,7.20
2013,10,30,10,25,7.30
2013,10,30,10,26,7.30
2013,10,30,10,27,7.40
2013,10,30,10,28,7.50
2013,10,30,10,29,7.50
2013,10,30,10,30,7.60
2013,10,30,10,31,7.60
2013,10,30,10,32,7.70
2013,10,30,10,33,7.70
2013,10,30,10,34,7.80
2013,10,30,10,35,7.80
2013,10,30,10,36,7.80
2013,10,30,10,37,7.90
2013,10,30,10,38,8.00
2013,10,30,10,39,8.00
2013,10,30,10,40,8.10
2013,10,30,10,41,8.20
2013,10,30,10,42,8.30
2013,10,30,10,43,8.40
2013,10,30,10,44,8.40
2013,10,30,10,45,8.50
2013,10,30,10,46,8.60
2013,10,30,10,47,8.60
2013,10,30,10,48,8.70
2013,10,30,10,49,8.80
2013,10,30,10,50,8.80
2013,10,30,10,51,8.90
2013,10,30,10,52,9.00
2013,10,30,10,53,9.00
2013,10,30,10,54,9.10
2013,10,30,10,55,9.20
2013,10,30,10,56,9.20
2013,10,30,10,57,9.30
2013,10,30,10,58,9.40
2013,10,30,10,59,9.40
2013,10,30,11,00,9.50
2013,10,30,11,01,9.50
2013,10,30,11,02,9.60
2013,10,30,11,03,9.70
2013,10,30,11,04,9.70
2013,10,30,11,05,9.80
2013,10,30,11,06,9.80
2013,10,30,11,07,9.90
2013,10,30,11,08,10.00
2013,10,30,11,09,10.00
2013,10,30,11,10,10.10
2013,10,30,11,11,10.10
2013,10,30,11,12,10.20
2013,10,30,11,13,10.20
2013,10,30,11,14,10.30
2013,10,30,11,15,10.30
2013,10,30,11,16,10.30
2013,10,30,11,17,10.40
2013,10,30,11,18,10.40
2013,10,30,11,19,10.50
2013,10,30,11,20,10.60
2013,10,30,11,21,10.60
2013,10,30,11,22,10.70
2013,10,30,11,23,10.70
2013,10,30,11,24,10.80
2013,10,30,11,25,10.80
2013,10,30,11,26,10.80
2013,10,30,11,27,10.90
2013,10,30,11,28,10.90
2013,10,30,11,29,11.00
2013,10,30,11,30,11.00
2013,10,30,11,31,11.10
2013,10,30,11,32,11.10
2013,10,30,11,33,11.10
2013,10,30,11,34,11.20
2013,10,30,11,35,11.20
2013,10,30,11,36,11.20
2013,10,30,11,37,11.30
2013,10,30,11,38,11.30
2013,10,30,11,39,11.40
2013,10,30,11,40,11.40
2013,10,30,11,41,11.40
2013,10,30,11,42,11.40
2013,10,30,11,43,11.40
2013,10,30,11,44,11.40
2013,10,30,11,45,11.50
2013,10,30,11,46,11.40
2013,10,30,11,47,11.40
2013,10,30,11,48,11.40
2013,10,30,11,49,11.40
2013,10,30,11,50,11.40
2013,10,30,11,51,11.30
2013,10,30,11,52,11.30
2013,10,30,11,53,11.20
2013,10,30,11,54,11.20
2013,10,30,11,55,11.20
2013,10,30,11,56,11.10
2013,10,30,11,57,11.10
2013,10,30,11,58,11.10
2013,10,30,11,59,11.00
2013,10,30,12,00,11.00
2013,10,30,12,01,11.00
2013,10,30,12,02,10.90
2013,10,30,12,03,10.90
2013,10,30,12,04,10.90
2013,10,30,12,05,10.90
2013,10,30,12,06,10.90
2013,10,30,12,07,10.90
2013,10,30,12,08,10.90
2013,10,30,12,09,10.90
2013,10,30,12,10,10.90
2013,10,30,12,11,10.90
2013,10,30,12,12,10.90
2013,10,30,12,13,10.90
2013,10,30,12,14,10.90
2013,10,30,12,15,10.90
2013,10,30,12,16,11.00
2013,10,30,12,17,11.00
2013,10,30,12,18,11.00
2013,10,30,12,19,11.00
2013,10,30,12,20,11.00
2013,10,30,12,21,11.00
2013,10,30,12,22,11.00
2013,10,30,12,23,11.00
2013,10,30,12,24,11.00
2013,10,30,12,25,11.00
2013,10,30,12,26,11.00
2013,10,30,12,27,11.00
2013,10,30,12,28,11.00
2013,10,30,12,29,11.00
2013,10,30,12,30,10.90
2013,10,30,12,31,11.00
2013,10,30,12,32,11.00
2013,10,30,12,33,10.90
2013,10,30,12,34,10.90
2013,10,30,12,35,10.90
2013,10,30,12,36,10.90
2013,10,30,12,37,10.90
2013,10,30,12,38,10.90
2013,10,30,12,39,10.90
2013,10,30,12,40,10.80
2013,10,30,12,41,10.80
2013,10,30,12,42,10.80
2013,10,30,12,43,10.80
2013,10,30,12,44,10.80
2013,10,30,12,45,10.80
2013,10,30,12,46,10.80
2013,10,30,12,47,10.80
2013,10,30,12,48,10.80
2013,10,30,12,49,10.80
2013,10,30,12,50,10.80
2013,10,30,12,51,10.80
2013,10,30,12,52,10.80
2013,10,30,12,53,10.80
2013,10,30,12,54,10.80
2013,10,30,12,55,10.70
2013,10,30,12,56,10.70
2013,10,30,12,57,10.70
2013,10,30,12,58,10.70
2013,10,30,12,59,10.70
2013,10,30,13,00,10.80
2013,10,30,13,01,10.80
2013,10,30,13,02,10.80
2013,10,30,13,03,10.80
2013,10,30,13,04,10.80
2013,10,30,13,05,10.80
2013,10,30,13,06,10.80
2013,10,30,13,07,10.70
2013,10,30,13,08,10.70
2013,10,30,13,09,10.70
2013,10,30,13,10,10.70
2013,10,30,13,11,10.70
2013,10,30,13,12,10.70
2013,10,30,13,13,10.80
2013,10,30,13,14,10.80
2013,10,30,13,15,10.80
2013,10,30,13,16,10.80
2013,10,30,13,17,10.80
2013,10,30,13,18,10.80
2013,10,30,13,19,10.80
2013,10,30,13,20,10.80
2013,10,30,13,21,10.80
2013,10,30,13,22,10.90
2013,10,30,13,23,10.90
2013,10,30,13,24,10.90
2013,10,30,13,25,10.90
2013,10,30,13,26,10.90
2013,10,30,13,27,11.00
2013,10,30,13,28,11.00
2013,10,30,13,29,11.10
2013,10,30,13,30,11.10
2013,10,30,13,31,11.10
2013,10,30,13,32,11.20
2013,10,30,13,33,11.20
2013,10,30,13,34,11.20
2013,10,30,13,35,11.20
2013,10,30,13,36,11.20
2013,10,30,13,37,11.30
2013,10,30,13,38,11.30
2013,10,30,13,39,11.30
2013,10,30,13,40,11.30
2013,10,30,13,41,11.30
2013,10,30,13,42,11.40
2013,10,30,13,43,11.40
2013,10,30,13,44,11.40
2013,10,30,13,45,11.40
2013,10,30,13,46,11.40
2013,10,30,13,47,11.40
2013,10,30,13,48,11.40
2013,10,30,13,49,11.40
2013,10,30,13,50,11.40
2013,10,30,13,51,11.50
2013,10,30,13,52,11.50
2013,10,30,13,53,11.50
2013,10,30,13,54,11.50
2013,10,30,13,55,11.50
2013,10,30,13,56,11.50
2013,10,30,13,57,11.50
2013,10,30,13,58,11.50
2013,10,30,13,59,11.50
2013,10,30,14,00,11.50
2013,10,30,14,01,11.60
2013,10,30,14,02,11.60
2013,10,30,14,03,11.60
2013,10,30,14,04,11.60
2013,10,30,14,05,11.60
2013,10,30,14,06,11.60
2013,10,30,14,07,11.60
2013,10,30,14,08,11.60
2013,10,30,14,09,11.60
2013,10,30,14,10,11.60
2013,10,30,14,11,11.70
2013,10,30,14,12,11.70
2013,10,30,14,13,11.70
2013,10,30,14,14,11.70
2013,10,30,14,15,11.70
2013,10,30,14,16,11.70
2013,10,30,14,17,11.70
2013,10,30,14,18,11.70
2013,10,30,14,19,11.70
2013,10,30,14,20,11.70
2013,10,30,14,21,11.70
2013,10,30,14,22,11.70
2013,10,30,14,23,11.70
2013,10,30,14,24,11.70
2013,10,30,14,25,11.70
2013,10,30,14,26,11.60
2013,10,30,14,27,11.60
2013,10,30,14,28,11.60
2013,10,30,14,29,11.60
2013,10,30,14,30,11.60
2013,10,30,14,31,11.60
2013,10,30,14,32,11.60
2013,10,30,14,33,11.60
2013,10,30,14,34,11.60
2013,10,30,14,35,11.60
2013,10,30,14,36,11.60
2013,10,30,14,37,11.60
2013,10,30,14,38,11.60
2013,10,30,14,39,11.70
2013,10,30,14,40,11.70
2013,10,30,14,41,11.70
2013,10,30,14,42,11.70
2013,10,30,14,43,11.70
2013,10,30,14,44,11.70
2013,10,30,14,45,11.70
2013,10,30,14,46,11.60
2013,10,30,14,47,11.60
2013,10,30,14,48,11.60
2013,10,30,14,49,11.60
2013,10,30,14,50,11.60
2013,10,30,14,51,11.60
2013,10,30,14,52,11.50
2013,10,30,14,53,11.50
2013,10,30,14,54,11.50
2013,10,30,14,55,11.40
2013,10,30,14,56,11.40
2013,10,30,14,57,11.40
2013,10,30,14,58,11.30
2013,10,30,14,59,11.30
2013,10,30,15,00,11.30
2013,10,30,15,01,11.30
2013,10,30,15,02,11.30
2013,10,30,15,03,11.30
2013,10,30,15,04,11.20
2013,10,30,15,05,11.20
2013,10,30,15,06,11.20
2013,10,30,15,07,11.20
2013,10,30,15,08,11.20
2013,10,30,15,09,11.20
2013,10,30,15,10,11.20
2013,10,30,15,11,11.20
2013,10,30,15,12,11.20
2013,10,30,15,13,11.20
2013,10,30,15,14,11.20
2013,10,30,15,15,11.20
2013,10,30,15,16,11.20
2013,10,30,15,17,11.20
2013,10,30,15,18,11.20
2013,10,30,15,19,11.20
2013,10,30,15,20,11.20
2013,10,30,15,21,11.20
2013,10,30,15,22,11.20
2013,10,30,15,23,11.20
2013,10,30,15,24,11.20
2013,10,30,15,25,11.20
2013,10,30,15,26,11.20
2013,10,30,15,27,11.20
2013,10,30,15,28,11.10
2013,10,30,15,29,11.10
2013,10,30,15,30,11.10
2013,10,30,15,31,11.10
2013,10,30,15,32,11.10
2013,10,30,15,33,11.10
2013,10,30,15,34,11.00
2013,10,30,15,35,11.00
2013,10,30,15,36,11.00
2013,10,30,15,37,11.00
2013,10,30,15,38,11.00
2013,10,30,15,39,10.90
2013,10,30,15,40,10.90
2013,10,30,15,41,10.90
2013,10,30,15,42,10.90
2013,10,30,15,43,10.90
2013,10,30,15,44,10.90
2013,10,30,15,45,10.90
2013,10,30,15,46,10.90
2013,10,30,15,47,10.90
2013,10,30,15,48,10.90
2013,10,30,15,49,10.90
2013,10,30,15,50,10.90
2013,10,30,15,51,10.90
2013,10,30,15,52,10.90
2013,10,30,15,53,10.90
2013,10,30,15,54,10.90
2013,10,30,15,55,10.90
2013,10,30,15,56,10.90
2013,10,30,15,57,10.90
2013,10,30,15,58,10.90
2013,10,30,15,59,10.90
2013,10,30,16,00,10.90
2013,10,30,16,01,10.90
2013,10,30,16,02,10.90
2013,10,30,16,03,10.90
2013,10,30,16,04,10.90
2013,10,30,16,05,10.90
2013,10,30,16,06,10.90
2013,10,30,16,07,10.80
2013,10,30,16,08,10.80
2013,10,30,16,09,10.80
2013,10,30,16,10,10.80
2013,10,30,16,11,10.80
2013,10,30,16,12,10.80
2013,10,30,16,13,10.80
2013,10,30,16,14,10.80
2013,10,30,16,15,10.80
2013,10,30,16,16,10.80
2013,10,30,16,17,10.80
2013,10,30,16,18,10.80
2013,10,30,16,19,10.80
2013,10,30,16,20,10.70
2013,10,30,16,21,10.70
2013,10,30,16,22,10.70
2013,10,30,16,23,10.70
2013,10,30,16,24,10.70
2013,10,30,16,25,10.70
2013,10,30,16,26,10.70
2013,10,30,16,27,10.70
2013,10,30,16,28,10.70
2013,10,30,16,29,10.70
2013,10,30,16,30,10.70
2013,10,30,16,31,10.60
2013,10,30,16,32,10.60
2013,10,30,16,33,10.60
2013,10,30,16,34,10.60
2013,10,30,16,35,10.60
2013,10,30,16,36,10.60
2013,10,30,16,37,10.60
2013,10,30,16,38,10.60
2013,10,30,16,39,10.60
2013,10,30,16,40,10.60
2013,10,30,16,41,10.60
2013,10,30,16,42,10.60
2013,10,30,16,43,10.60
2013,10,30,16,44,10.60
2013,10,30,16,45,10.60
2013,10,30,16,46,10.60
2013,10,30,16,47,10.60
2013,10,30,16,48,10.60
2013,10,30,16,49,10.60
2013,10,30,16,50,10.60
2013,10,30,16,51,10.60
2013,10,30,16,52,10.60
2013,10,30,16,53,10.60
2013,10,30,16,54,10.60
2013,10,30,16,55,10.60
2013,10,30,16,56,10.60
2013,10,30,16,57,10.60
2013,10,30,16,58,10.60
2013,10,30,16,59,10.60
2013,10,30,17,00,10.60
2013,10,30,17,01,10.60
2013,10,30,17,02,10.60
2013,10,30,17,03,10.60
2013,10,30,17,04,10.60
2013,10,30,17,05,10.60
2013,10,30,17,06,10.60
2013,10,30,17,07,10.60
2013,10,30,17,08,10.60
2013,10,30,17,09,10.60
2013,10,30,17,10,10.50
2013,10,30,17,11,10.60
2013,10,30,17,12,10.50
2013,10,30,17,13,10.50
2013,10,30,17,14,10.50
2013,10,30,17,15,10.50
2013,10,30,17,16,10.50
2013,10,30,17,17,10.50
2013,10,30,17,18,10.50
2013,10,30,17,19,10.50
2013,10,30,17,20,10.50
2013,10,30,17,21,10.50
2013,10,30,17,22,10.50
2013,10,30,17,23,10.50
2013,10,30,17,24,10.50
2013,10,30,17,25,10.50
2013,10,30,17,26,10.50
2013,10,30,17,27,10.50
2013,10,30,17,28,10.50
2013,10,30,17,29,10.50
2013,10,30,17,30,10.50
2013,10,30,17,31,10.50
2013,10,30,17,32,10.50
2013,10,30,17,33,10.50
2013,10,30,17,34,10.40
2013,10,30,17,35,10.40
2013,10,30,17,36,10.40
2013,10,30,17,37,10.40
2013,10,30,17,38,10.40
2013,10,30,17,39,10.40
2013,10,30,17,40,10.40
2013,10,30,17,41,10.40
2013,10,30,17,42,10.40
2013,10,30,17,43,10.40
2013,10,30,17,44,10.40
2013,10,30,17,45,10.40
2013,10,30,17,46,10.40
2013,10,30,17,47,10.40
2013,10,30,17,48,10.40